Sat, 10 Apr 2021 15:53:25 UTC | login

Information for RPM maven30-apache-commons-jexl-2.1.1-8.bootstrap1.9.10.el6.noarch.rpm

ID15108
Namemaven30-apache-commons-jexl
Version2.1.1
Release8.bootstrap1.9.10.el6
Epoch
Archnoarch
SummaryJava Expression Language (JEXL)
DescriptionJava Expression Language (JEXL) is an expression language engine which can be embedded in applications and frameworks. JEXL is inspired by Jakarta Velocity and the Expression Language defined in the JavaServer Pages Standard Tag Library version 1.1 (JSTL) and JavaServer Pages version 2.0 (JSP). While inspired by JSTL EL, it must be noted that JEXL is not a compatible implementation of EL as defined in JSTL 1.1 (JSR-052) or JSP 2.0 (JSR-152). For a compatible implementation of these specifications, see the Commons EL project. JEXL attempts to bring some of the lessons learned by the Velocity community about expression languages in templating to a wider audience. Commons Jelly needed Velocity-ish method access, it just had to have it.
Build Time2015-08-20 07:37:56 GMT
Size256444
35d761dbdf4d795e5a655f914e1c5d01
LicenseASL 2.0
Buildrootsclo6-maven30-rh-el6-build-3424-5553
Provides
maven30-apache-commons-jexl = 2.1.1-8.bootstrap1.9.10.el6
maven30-mvn(org.apache.commons:commons-jexl) = 2.1.1
maven30-mvn(org.apache.commons:commons-jexl:pom:) = 2.1.1
maven30-osgi(org.apache.commons.jexl) = 2.1.1
Obsoletes No Obsoletes
Conflicts No Conflicts
Requires
java
maven30-runtime
rh-java-common-mvn(commons-logging:commons-logging)
rpmlib(CompressedFileNames) <= 3.0.4-1
rpmlib(FileDigests) <= 4.6.0-1
rpmlib(PayloadFilesHavePrefix) <= 4.0-1
rpmlib(PayloadIsXz) <= 5.2-1
rpmlib(VersionedDependencies) <= 3.0.3-1
Recommends No Recommends
Suggests No Suggests
Supplements No Supplements
Enhances No Enhances
Files
1 through 9 of 9
Name ascending sort Size
/opt/rh/maven30/root/usr/share/doc/maven30-apache-commons-jexl-2.1.14096
/opt/rh/maven30/root/usr/share/doc/maven30-apache-commons-jexl-2.1.1/LICENSE.txt11358
/opt/rh/maven30/root/usr/share/doc/maven30-apache-commons-jexl-2.1.1/NOTICE.txt173
/opt/rh/maven30/root/usr/share/doc/maven30-apache-commons-jexl-2.1.1/RELEASE-NOTES.txt10764
/opt/rh/maven30/root/usr/share/java/apache-commons-jexl4096
/opt/rh/maven30/root/usr/share/java/apache-commons-jexl/commons-jexl.jar267043
/opt/rh/maven30/root/usr/share/maven-metadata/apache-commons-jexl.xml1811
/opt/rh/maven30/root/usr/share/maven-poms/apache-commons-jexl4096
/opt/rh/maven30/root/usr/share/maven-poms/apache-commons-jexl/commons-jexl.pom10953
Component of
Page:
1 through 50 of 212 >>>
Buildroot descending sort Created State
sclo6-maven30-rh-el6-build-5509-7349 2015-09-07 22:38:51 expired
sclo6-maven30-rh-el6-build-5508-7349 2015-09-07 22:36:16 expired
sclo6-maven30-rh-el6-build-5507-7349 2015-09-07 22:35:39 expired
sclo6-maven30-rh-el6-build-5506-7349 2015-09-07 22:33:41 expired
sclo6-maven30-rh-el6-build-5505-7349 2015-09-07 22:32:05 expired
sclo6-maven30-rh-el6-build-5504-7349 2015-09-07 22:29:22 expired
sclo6-maven30-rh-el6-build-5503-7349 2015-09-07 22:27:51 expired
sclo6-maven30-rh-el6-build-5502-7349 2015-09-07 22:27:12 expired
sclo6-maven30-rh-el6-build-5501-7349 2015-09-07 22:26:26 expired
sclo6-maven30-rh-el6-build-5500-7349 2015-09-07 22:25:49 expired
sclo6-maven30-rh-el6-build-5499-7348 2015-09-07 22:23:23 expired
sclo6-maven30-rh-el6-build-5498-7348 2015-09-07 22:23:05 expired
sclo6-maven30-rh-el6-build-5497-7348 2015-09-07 22:22:46 expired
sclo6-maven30-rh-el6-build-5495-7348 2015-09-07 22:22:09 expired
sclo6-maven30-rh-el6-build-5494-7348 2015-09-07 22:21:51 expired
sclo6-maven30-rh-el6-build-5493-7348 2015-09-07 22:21:33 expired
sclo6-maven30-rh-el6-build-5492-7348 2015-09-07 22:21:14 expired
sclo6-maven30-rh-el6-build-5491-7348 2015-09-07 22:20:43 expired
sclo6-maven30-rh-el6-build-5490-7348 2015-09-07 22:20:25 expired
sclo6-maven30-rh-el6-build-5489-6656 2015-09-07 22:20:08 expired
sclo6-maven30-rh-el6-build-5488-6656 2015-09-07 22:19:50 expired
sclo6-maven30-rh-el6-build-5487-6656 2015-09-07 22:19:15 expired
sclo6-maven30-rh-el6-build-5486-6656 2015-09-07 22:11:31 expired
sclo6-maven30-rh-el6-build-5485-6656 2015-09-07 22:11:03 expired
sclo6-maven30-rh-el6-build-5484-6656 2015-09-07 22:10:45 expired
sclo6-maven30-rh-el6-build-5483-6656 2015-09-07 22:10:10 expired
sclo6-maven30-rh-el6-build-4385-6576 2015-08-21 19:28:28 expired
sclo6-maven30-rh-el6-build-4379-6576 2015-08-21 19:19:01 expired
sclo6-maven30-rh-el6-build-4312-6568 2015-08-21 11:41:08 expired
sclo6-maven30-rh-el6-build-4305-6563 2015-08-21 11:33:32 expired
sclo6-maven30-rh-el6-build-4300-6556 2015-08-21 11:26:42 expired
sclo6-maven30-rh-el6-build-4293-6545 2015-08-21 11:19:17 expired
sclo6-maven30-rh-el6-build-4282-6539 2015-08-21 11:11:47 expired
sclo6-maven30-rh-el6-build-4276-6530 2015-08-21 11:05:28 expired
sclo6-maven30-rh-el6-build-4267-6523 2015-08-21 10:54:01 expired
sclo6-maven30-rh-el6-build-4263-6513 2015-08-21 10:47:39 expired
sclo6-maven30-rh-el6-build-4256-6508 2015-08-21 10:39:18 expired
sclo6-maven30-rh-el6-build-4249-6487 2015-08-21 10:30:25 expired
sclo6-maven30-rh-el6-build-4236-6479 2015-08-21 10:13:34 expired
sclo6-maven30-rh-el6-build-4222-6451 2015-08-21 09:56:12 expired
sclo6-maven30-rh-el6-build-4212-6444 2015-08-21 09:48:05 expired
sclo6-maven30-rh-el6-build-4206-6436 2015-08-21 09:41:05 expired
sclo6-maven30-rh-el6-build-4198-6425 2015-08-21 09:33:36 expired
sclo6-maven30-rh-el6-build-4187-6405 2015-08-21 09:23:45 expired
sclo6-maven30-rh-el6-build-4173-6398 2015-08-21 09:05:37 expired
sclo6-maven30-rh-el6-build-4163-6386 2015-08-21 08:55:57 expired
sclo6-maven30-rh-el6-build-4154-6379 2015-08-21 08:47:11 expired
sclo6-maven30-rh-el6-build-4146-6366 2015-08-21 08:38:59 expired
sclo6-maven30-rh-el6-build-4131-6354 2015-08-21 08:22:44 expired
sclo6-maven30-rh-el6-build-4121-6341 2015-08-21 08:08:19 expired